Location: Erp
(42.9417°N, 1.2009°E)
Time: 10:29:49
(UTC+00:00)

NOSS 3-2 (C) - Pass Details

Date: 12 January 2026
Orbit: 672 x 1536 km, 63.4° (Epoch: 2 January)

Event Time Altitude Azimuth Distance (km) Brightness Sun altitude
Rises 17:27:52 0° 323° (NW) 3,900 6.9 -8.3°
Reaches altitude 10° 17:30:20 10° 324° (NW) 3,054 6.3 -8.7°
Maximum altitude 17:37:53 87° 52° (NE) 1,333 4.2 -10.0°
Drops below altitude 10° 17:46:53 10° 145° (SE) 3,607 6.3 -11.6°
Sets 17:50:01 0° 146° (SE) 4,638 6.9 -12.1°
